{"data":{"norad_id":55658,"intl_designator":"2023-021AG","name":"STARLINK-5307","alt_names":[],"object_type":"PAYLOAD","status":"ACTIVE","operator":null,"country":"US","launch_date":"2023-02-17","launch_site_code":"AFWTR","launch_vehicle":null,"mission":null,"orbit_class":"UNKNOWN","rcs_meters":null,"size_class":null,"mass_kg":null,"dimensions":null,"purposes":["comms"],"wikipedia_slug":null,"has_3d_model":false,"image_url":null,"decayed_at":null,"tle_current":{"epoch":"2026-05-24T23:48:46.188000Z","epoch_age_seconds":69571,"freshness":"FRESH","line1":"1 55658U 23021AG  26144.99220125  .00000190  00000+0  23744-4 0  9997","line2":"2 55658  69.9994 351.9551 0002902 268.6069  91.4757 14.98330710180228","mean_motion":14.9833071,"eccentricity":0.0002902,"inclination_deg":69.9994,"raan_deg":351.9551,"arg_perigee_deg":268.6069,"mean_anomaly_deg":91.4757,"bstar":2.3744e-5,"rev_number":18022,"period_min":96.106953584366,"perigee_km":570.03674998907,"apogee_km":574.07064066864,"semimajor_km":6950.1906953289,"source":"CELESTRAK","updated_at":"2026-05-25T13:38:17.873204Z"}}}